owner,sensor,date,latitude,longitude,air_pressure(mBar),qcFlag 
WAVCIS,ioos:station:WAVCIS:CSI09:1,2017-04-01T00:00:00Z,29.1015,-89.9782,1012.02,11111222 
WAVCIS,ioos:station:WAVCIS:CSI09:1,2017-04-01T01:00:00Z,29.1015,-89.9782,1012.34,11111222 
WAVCIS,ioos:station:WAVCIS:CSI09:1,2017-04-01T02:00:00Z,29.1015,-89.9782,1012.83,11111222 
WAVCIS,ioos:station:WAVCIS:CSI09:1,2017-04-01T03:00:00Z,29.1015,-89.9782,1013.39,11111222 
WAVCIS,ioos:station:WAVCIS:CSI09:1,2017-04-01T04:00:00Z,29.1015,-89.9782,1013.56,11111222 
WAVCIS,ioos:station:WAVCIS:CSI09:1,2017-04-01T05:00:00Z,29.1015,-89.9782,1013.55,11111222 
WAVCIS,ioos:station:WAVCIS:CSI09:1,2017-04-01T06:00:00Z,29.1015,-89.9782,1013.65,11111222 
WAVCIS,ioos:station:WAVCIS:CSI09:1,2017-04-01T07:00:00Z,29.1015,-89.9782,1013.41,11111222 
WAVCIS,ioos:station:WAVCIS:CSI09:1,2017-04-01T08:00:00Z,29.1015,-89.9782,1013.34,11111222 
WAVCIS,ioos:station:WAVCIS:CSI09:1,2017-04-01T09:00:00Z,29.1015,-89.9782,1013.48,11111222 
WAVCIS,ioos:station:WAVCIS:CSI09:1,2017-04-01T10:00:00Z,29.1015,-89.9782,1013.42,11111222 
WAVCIS,ioos:station:WAVCIS:CSI09:1,2017-04-01T11:00:00Z,29.1015,-89.9782,1014.11,11111222 
WAVCIS,ioos:station:WAVCIS:CSI09:1,2017-04-01T12:00:00Z,29.1015,-89.9782,1014.73,11111222 
WAVCIS,ioos:station:WAVCIS:CSI09:1,2017-04-01T13:00:00Z,29.1015,-89.9782,1015.64,11111222 
WAVCIS,ioos:station:WAVCIS:CSI09:1,2017-04-01T14:00:00Z,29.1015,-89.9782,1015.81,11111222 
WAVCIS,ioos:station:WAVCIS:CSI09:1,2017-04-01T15:00:00Z,29.1015,-89.9782,1016.26,11111222 
WAVCIS,ioos:station:WAVCIS:CSI09:1,2017-04-01T16:00:00Z,29.1015,-89.9782,1016.34,11111222 
WAVCIS,ioos:station:WAVCIS:CSI09:1,2017-04-01T17:00:00Z,29.1015,-89.9782,1016.49,11111222 
WAVCIS,ioos:station:WAVCIS:CSI09:1,2017-04-01T18:00:00Z,29.1015,-89.9782,1016.29,11111222 
WAVCIS,ioos:station:WAVCIS:CSI09:1,2017-04-01T19:00:00Z,29.1015,-89.9782,1016.08,11111222 
WAVCIS,ioos:station:WAVCIS:CSI09:1,2017-04-01T20:00:00Z,29.1015,-89.9782,1015.42,11111222 
WAVCIS,ioos:station:WAVCIS:CSI09:1,2017-04-01T21:00:00Z,29.1015,-89.9782,1015.0,11111222 
WAVCIS,ioos:station:WAVCIS:CSI09:1,2017-04-01T22:00:00Z,29.1015,-89.9782,1014.62,11111222 
WAVCIS,ioos:station:WAVCIS:CSI09:1,2017-04-01T23:00:00Z,29.1015,-89.9782,1014.93,11111222 
WAVCIS,ioos:station:WAVCIS:CSI09:1,2017-04-02T00:00:00Z,29.1015,-89.9782,1015.16,11111222 
WAVCIS,ioos:station:WAVCIS:CSI09:1,2017-04-02T01:00:00Z,29.1015,-89.9782,1015.19,11111222 
WAVCIS,ioos:station:WAVCIS:CSI09:1,2017-04-02T02:00:00Z,29.1015,-89.9782,1015.42,11111222 
WAVCIS,ioos:station:WAVCIS:CSI09:1,2017-04-02T03:00:00Z,29.1015,-89.9782,1015.82,11111222 
WAVCIS,ioos:station:WAVCIS:CSI09:1,2017-04-02T04:00:00Z,29.1015,-89.9782,1015.71,11111222 
WAVCIS,ioos:station:WAVCIS:CSI09:1,2017-04-02T05:00:00Z,29.1015,-89.9782,1015.07,11111222 
WAVCIS,ioos:station:WAVCIS:CSI09:1,2017-04-02T06:00:00Z,29.1015,-89.9782,1014.44,11111222 
WAVCIS,ioos:station:WAVCIS:CSI09:1,2017-04-02T07:00:00Z,29.1015,-89.9782,1013.75,11111222 
WAVCIS,ioos:station:WAVCIS:CSI09:1,2017-04-02T08:00:00Z,29.1015,-89.9782,1012.83,11111222 
WAVCIS,ioos:station:WAVCIS:CSI09:1,2017-04-02T09:00:00Z,29.1015,-89.9782,1012.0,11111222 
WAVCIS,ioos:station:WAVCIS:CSI09:1,2017-04-02T10:00:00Z,29.1015,-89.9782,1012.2,11111222 
WAVCIS,ioos:station:WAVCIS:CSI09:1,2017-04-02T11:00:00Z,29.1015,-89.9782,1012.63,11111222 
WAVCIS,ioos:station:WAVCIS:CSI09:1,2017-04-02T12:00:00Z,29.1015,-89.9782,1013.21,11111222 
WAVCIS,ioos:station:WAVCIS:CSI09:1,2017-04-02T13:00:00Z,29.1015,-89.9782,1013.58,11111222 
WAVCIS,ioos:station:WAVCIS:CSI09:1,2017-04-02T14:00:00Z,29.1015,-89.9782,1013.69,11111222 
WAVCIS,ioos:station:WAVCIS:CSI09:1,2017-04-02T15:00:00Z,29.1015,-89.9782,1013.03,11111222 
WAVCIS,ioos:station:WAVCIS:CSI09:1,2017-04-02T16:00:00Z,29.1015,-89.9782,1012.82,11111222 
WAVCIS,ioos:station:WAVCIS:CSI09:1,2017-04-02T17:00:00Z,29.1015,-89.9782,1012.89,11111222 
WAVCIS,ioos:station:WAVCIS:CSI09:1,2017-04-02T18:00:00Z,29.1015,-89.9782,1012.9,11111222 
WAVCIS,ioos:station:WAVCIS:CSI09:1,2017-04-02T19:00:00Z,29.1015,-89.9782,1011.96,11111222 
WAVCIS,ioos:station:WAVCIS:CSI09:1,2017-04-02T20:00:00Z,29.1015,-89.9782,1010.69,11111222 
WAVCIS,ioos:station:WAVCIS:CSI09:1,2017-04-02T21:00:00Z,29.1015,-89.9782,1009.48,11111222 
WAVCIS,ioos:station:WAVCIS:CSI09:1,2017-04-02T22:00:00Z,29.1015,-89.9782,1008.97,11111222 
WAVCIS,ioos:station:WAVCIS:CSI09:1,2017-04-02T23:00:00Z,29.1015,-89.9782,1008.63,11111222 
WAVCIS,ioos:station:WAVCIS:CSI09:1,2017-04-03T00:00:00Z,29.1015,-89.9782,1009.16,11111222 
WAVCIS,ioos:station:WAVCIS:CSI09:1,2017-04-03T01:00:00Z,29.1015,-89.9782,1008.1,11111222 
WAVCIS,ioos:station:WAVCIS:CSI09:1,2017-04-03T02:00:00Z,29.1015,-89.9782,1007.95,11111222 
WAVCIS,ioos:station:WAVCIS:CSI09:1,2017-04-03T03:00:00Z,29.1015,-89.9782,1008.14,11111222 
WAVCIS,ioos:station:WAVCIS:CSI09:1,2017-04-03T04:00:00Z,29.1015,-89.9782,1007.67,11111222 
WAVCIS,ioos:station:WAVCIS:CSI09:1,2017-04-03T05:00:00Z,29.1015,-89.9782,1007.25,11111222 
WAVCIS,ioos:station:WAVCIS:CSI09:1,2017-04-03T06:00:00Z,29.1015,-89.9782,1007.19,11111222 
WAVCIS,ioos:station:WAVCIS:CSI09:1,2017-04-03T07:00:00Z,29.1015,-89.9782,1006.998,11111222 
WAVCIS,ioos:station:WAVCIS:CSI09:1,2017-04-03T08:00:00Z,29.1015,-89.9782,1006.192,11111222 
WAVCIS,ioos:station:WAVCIS:CSI09:1,2017-04-03T09:00:00Z,29.1015,-89.9782,1005.35,11111222 
WAVCIS,ioos:station:WAVCIS:CSI09:1,2017-04-03T10:00:00Z,29.1015,-89.9782,1005.076,11111222 
WAVCIS,ioos:station:WAVCIS:CSI09:1,2017-04-03T11:00:00Z,29.1015,-89.9782,1006.152,11111222 
WAVCIS,ioos:station:WAVCIS:CSI09:1,2017-04-03T12:00:00Z,29.1015,-89.9782,1006.346,11111222 
WAVCIS,ioos:station:WAVCIS:CSI09:1,2017-04-03T13:00:00Z,29.1015,-89.9782,1006.954,11111222 
WAVCIS,ioos:station:WAVCIS:CSI09:1,2017-04-03T14:00:00Z,29.1015,-89.9782,1007.32,11111222 
WAVCIS,ioos:station:WAVCIS:CSI09:1,2017-04-03T15:00:00Z,29.1015,-89.9782,1007.9,11111222 
WAVCIS,ioos:station:WAVCIS:CSI09:1,2017-04-03T16:00:00Z,29.1015,-89.9782,1008.9,11111222 
WAVCIS,ioos:station:WAVCIS:CSI09:1,2017-04-03T17:00:00Z,29.1015,-89.9782,1008.79,11111222 
WAVCIS,ioos:station:WAVCIS:CSI09:1,2017-04-03T18:00:00Z,29.1015,-89.9782,1008.69,11111222 
WAVCIS,ioos:station:WAVCIS:CSI09:1,2017-04-03T19:00:00Z,29.1015,-89.9782,1008.32,11111222 
WAVCIS,ioos:station:WAVCIS:CSI09:1,2017-04-03T20:00:00Z,29.1015,-89.9782,1007.74,11111222 
WAVCIS,ioos:station:WAVCIS:CSI09:1,2017-04-03T21:00:00Z,29.1015,-89.9782,1007.47,11111222 
WAVCIS,ioos:station:WAVCIS:CSI09:1,2017-04-03T22:00:00Z,29.1015,-89.9782,1007.49,11111222 
WAVCIS,ioos:station:WAVCIS:CSI09:1,2017-04-03T23:00:00Z,29.1015,-89.9782,1007.45,11111222 
WAVCIS,ioos:station:WAVCIS:CSI09:1,2017-04-04T00:00:00Z,29.1015,-89.9782,1007.36,11111222 
WAVCIS,ioos:station:WAVCIS:CSI09:1,2017-04-04T01:00:00Z,29.1015,-89.9782,1007.85,11111222 
WAVCIS,ioos:station:WAVCIS:CSI09:1,2017-04-04T02:00:00Z,29.1015,-89.9782,1008.53,11111222 
WAVCIS,ioos:station:WAVCIS:CSI09:1,2017-04-04T03:00:00Z,29.1015,-89.9782,1008.98,11111222 
WAVCIS,ioos:station:WAVCIS:CSI09:1,2017-04-04T04:00:00Z,29.1015,-89.9782,1009.25,11111222 
WAVCIS,ioos:station:WAVCIS:CSI09:1,2017-04-04T05:00:00Z,29.1015,-89.9782,1009.27,11111222 
WAVCIS,ioos:station:WAVCIS:CSI09:1,2017-04-04T06:00:00Z,29.1015,-89.9782,1009.64,11111222 
WAVCIS,ioos:station:WAVCIS:CSI09:1,2017-04-04T07:00:00Z,29.1015,-89.9782,1009.3,11111222 
WAVCIS,ioos:station:WAVCIS:CSI09:1,2017-04-04T08:00:00Z,29.1015,-89.9782,1009.01,11111222 
WAVCIS,ioos:station:WAVCIS:CSI09:1,2017-04-04T09:00:00Z,29.1015,-89.9782,1009.01,11111222 
WAVCIS,ioos:station:WAVCIS:CSI09:1,2017-04-04T10:00:00Z,29.1015,-89.9782,1008.91,11111222 
WAVCIS,ioos:station:WAVCIS:CSI09:1,2017-04-04T11:00:00Z,29.1015,-89.9782,1009.16,11111222 
WAVCIS,ioos:station:WAVCIS:CSI09:1,2017-04-04T12:00:00Z,29.1015,-89.9782,1008.99,11111222 
WAVCIS,ioos:station:WAVCIS:CSI09:1,2017-04-04T13:00:00Z,29.1015,-89.9782,1010.16,11111222 
WAVCIS,ioos:station:WAVCIS:CSI09:1,2017-04-04T14:00:00Z,29.1015,-89.9782,1010.54,11111222 
WAVCIS,ioos:station:WAVCIS:CSI09:1,2017-04-04T15:00:00Z,29.1015,-89.9782,1010.46,11111222 
WAVCIS,ioos:station:WAVCIS:CSI09:1,2017-04-04T16:00:00Z,29.1015,-89.9782,1010.54,11111222 
WAVCIS,ioos:station:WAVCIS:CSI09:1,2017-04-04T17:00:00Z,29.1015,-89.9782,1010.7,11111222 
WAVCIS,ioos:station:WAVCIS:CSI09:1,2017-04-04T18:00:00Z,29.1015,-89.9782,1010.47,11111222 
WAVCIS,ioos:station:WAVCIS:CSI09:1,2017-04-04T19:00:00Z,29.1015,-89.9782,1009.99,11111222 
WAVCIS,ioos:station:WAVCIS:CSI09:1,2017-04-04T20:00:00Z,29.1015,-89.9782,1009.09,11111222 
WAVCIS,ioos:station:WAVCIS:CSI09:1,2017-04-04T21:00:00Z,29.1015,-89.9782,1008.38,11111222 
WAVCIS,ioos:station:WAVCIS:CSI09:1,2017-04-04T22:00:00Z,29.1015,-89.9782,1008.0,11111222 
WAVCIS,ioos:station:WAVCIS:CSI09:1,2017-04-04T23:00:00Z,29.1015,-89.9782,1007.85,11111222 
WAVCIS,ioos:station:WAVCIS:CSI09:1,2017-04-05T00:00:00Z,29.1015,-89.9782,1007.7,11111222 
WAVCIS,ioos:station:WAVCIS:CSI09:1,2017-04-05T01:00:00Z,29.1015,-89.9782,1007.73,11111222 
WAVCIS,ioos:station:WAVCIS:CSI09:1,2017-04-05T02:00:00Z,29.1015,-89.9782,1007.87,11111222 
WAVCIS,ioos:station:WAVCIS:CSI09:1,2017-04-05T03:00:00Z,29.1015,-89.9782,1008.18,11111222 
WAVCIS,ioos:station:WAVCIS:CSI09:1,2017-04-05T04:00:00Z,29.1015,-89.9782,1008.81,11111222 
WAVCIS,ioos:station:WAVCIS:CSI09:1,2017-04-05T05:00:00Z,29.1015,-89.9782,1008.6,11111222 
WAVCIS,ioos:station:WAVCIS:CSI09:1,2017-04-05T06:00:00Z,29.1015,-89.9782,1008.46,11111222 
WAVCIS,ioos:station:WAVCIS:CSI09:1,2017-04-05T07:00:00Z,29.1015,-89.9782,1008.28,11111222 
WAVCIS,ioos:station:WAVCIS:CSI09:1,2017-04-05T08:00:00Z,29.1015,-89.9782,1007.99,11111222 
WAVCIS,ioos:station:WAVCIS:CSI09:1,2017-04-05T09:00:00Z,29.1015,-89.9782,1007.58,11111222 
WAVCIS,ioos:station:WAVCIS:CSI09:1,2017-04-05T10:00:00Z,29.1015,-89.9782,1007.92,11111222 
WAVCIS,ioos:station:WAVCIS:CSI09:1,2017-04-05T11:00:00Z,29.1015,-89.9782,1008.41,11111222 
WAVCIS,ioos:station:WAVCIS:CSI09:1,2017-04-05T12:00:00Z,29.1015,-89.9782,1009.14,11111222 
WAVCIS,ioos:station:WAVCIS:CSI09:1,2017-04-05T13:00:00Z,29.1015,-89.9782,1009.94,11111222 
WAVCIS,ioos:station:WAVCIS:CSI09:1,2017-04-05T14:00:00Z,29.1015,-89.9782,1010.14,11111222 
WAVCIS,ioos:station:WAVCIS:CSI09:1,2017-04-05T15:00:00Z,29.1015,-89.9782,1010.64,11111222 
WAVCIS,ioos:station:WAVCIS:CSI09:1,2017-04-05T16:00:00Z,29.1015,-89.9782,1010.46,11111222 
WAVCIS,ioos:station:WAVCIS:CSI09:1,2017-04-05T17:00:00Z,29.1015,-89.9782,1010.27,11111222 
WAVCIS,ioos:station:WAVCIS:CSI09:1,2017-04-05T18:00:00Z,29.1015,-89.9782,1009.8,11111222 
WAVCIS,ioos:station:WAVCIS:CSI09:1,2017-04-05T19:00:00Z,29.1015,-89.9782,1009.74,11111222 
WAVCIS,ioos:station:WAVCIS:CSI09:1,2017-04-05T20:00:00Z,29.1015,-89.9782,1009.51,11111222 
WAVCIS,ioos:station:WAVCIS:CSI09:1,2017-04-05T21:00:00Z,29.1015,-89.9782,1009.34,11111222 
WAVCIS,ioos:station:WAVCIS:CSI09:1,2017-04-05T22:00:00Z,29.1015,-89.9782,1009.25,11111222 
WAVCIS,ioos:station:WAVCIS:CSI09:1,2017-04-05T23:00:00Z,29.1015,-89.9782,1009.69,11111222 
WAVCIS,ioos:station:WAVCIS:CSI09:1,2017-04-06T00:00:00Z,29.1015,-89.9782,1010.6,11111222 
WAVCIS,ioos:station:WAVCIS:CSI09:1,2017-04-06T01:00:00Z,29.1015,-89.9782,1011.69,11111222 
WAVCIS,ioos:station:WAVCIS:CSI09:1,2017-04-06T02:00:00Z,29.1015,-89.9782,1013.13,11111222 
WAVCIS,ioos:station:WAVCIS:CSI09:1,2017-04-06T03:00:00Z,29.1015,-89.9782,1014.11,11111222 
WAVCIS,ioos:station:WAVCIS:CSI09:1,2017-04-06T04:00:00Z,29.1015,-89.9782,1015.22,11111222 
WAVCIS,ioos:station:WAVCIS:CSI09:1,2017-04-06T05:00:00Z,29.1015,-89.9782,1015.72,11111222 
WAVCIS,ioos:station:WAVCIS:CSI09:1,2017-04-06T06:00:00Z,29.1015,-89.9782,1016.47,11111222 
WAVCIS,ioos:station:WAVCIS:CSI09:1,2017-04-06T07:00:00Z,29.1015,-89.9782,1016.54,11111222 
WAVCIS,ioos:station:WAVCIS:CSI09:1,2017-04-06T08:00:00Z,29.1015,-89.9782,1016.57,11111222 
WAVCIS,ioos:station:WAVCIS:CSI09:1,2017-04-06T09:00:00Z,29.1015,-89.9782,1016.32,11111222 
WAVCIS,ioos:station:WAVCIS:CSI09:1,2017-04-06T10:00:00Z,29.1015,-89.9782,1017.37,11111222 
WAVCIS,ioos:station:WAVCIS:CSI09:1,2017-04-06T11:00:00Z,29.1015,-89.9782,1018.24,11111222 
WAVCIS,ioos:station:WAVCIS:CSI09:1,2017-04-06T12:00:00Z,29.1015,-89.9782,1018.94,11111222 
WAVCIS,ioos:station:WAVCIS:CSI09:1,2017-04-06T13:00:00Z,29.1015,-89.9782,1019.73,11111222 
WAVCIS,ioos:station:WAVCIS:CSI09:1,2017-04-06T14:00:00Z,29.1015,-89.9782,1020.42,11111222 
WAVCIS,ioos:station:WAVCIS:CSI09:1,2017-04-06T15:00:00Z,29.1015,-89.9782,1020.79,11111222 
WAVCIS,ioos:station:WAVCIS:CSI09:1,2017-04-06T16:00:00Z,29.1015,-89.9782,1020.99,11111222 
WAVCIS,ioos:station:WAVCIS:CSI09:1,2017-04-06T17:00:00Z,29.1015,-89.9782,1020.81,11111222 
WAVCIS,ioos:station:WAVCIS:CSI09:1,2017-04-06T18:00:00Z,29.1015,-89.9782,1020.43,11111222 
WAVCIS,ioos:station:WAVCIS:CSI09:1,2017-04-06T19:00:00Z,29.1015,-89.9782,1020.01,11111222 
WAVCIS,ioos:station:WAVCIS:CSI09:1,2017-04-06T20:00:00Z,29.1015,-89.9782,1019.52,11111222 
WAVCIS,ioos:station:WAVCIS:CSI09:1,2017-04-06T21:00:00Z,29.1015,-89.9782,1018.65,11111222 
WAVCIS,ioos:station:WAVCIS:CSI09:1,2017-04-06T22:00:00Z,29.1015,-89.9782,1018.37,11111222 
WAVCIS,ioos:station:WAVCIS:CSI09:1,2017-04-06T23:00:00Z,29.1015,-89.9782,1018.36,11111222 
WAVCIS,ioos:station:WAVCIS:CSI09:1,2017-04-07T00:00:00Z,29.1015,-89.9782,1018.86,11111222 
WAVCIS,ioos:station:WAVCIS:CSI09:1,2017-04-07T01:00:00Z,29.1015,-89.9782,1019.83,11111222 
WAVCIS,ioos:station:WAVCIS:CSI09:1,2017-04-07T02:00:00Z,29.1015,-89.9782,1020.39,11111222 
WAVCIS,ioos:station:WAVCIS:CSI09:1,2017-04-07T03:00:00Z,29.1015,-89.9782,1021.24,11111222 
WAVCIS,ioos:station:WAVCIS:CSI09:1,2017-04-07T04:00:00Z,29.1015,-89.9782,1021.19,11111222 
WAVCIS,ioos:station:WAVCIS:CSI09:1,2017-04-07T05:00:00Z,29.1015,-89.9782,1021.33,11111222 
WAVCIS,ioos:station:WAVCIS:CSI09:1,2017-04-07T06:00:00Z,29.1015,-89.9782,1021.48,11111222 
WAVCIS,ioos:station:WAVCIS:CSI09:1,2017-04-07T07:00:00Z,29.1015,-89.9782,1021.13,11111222 
WAVCIS,ioos:station:WAVCIS:CSI09:1,2017-04-07T08:00:00Z,29.1015,-89.9782,1021.44,11111222 
WAVCIS,ioos:station:WAVCIS:CSI09:1,2017-04-07T09:00:00Z,29.1015,-89.9782,1021.87,11111222 
WAVCIS,ioos:station:WAVCIS:CSI09:1,2017-04-07T10:00:00Z,29.1015,-89.9782,1021.92,11111222 
WAVCIS,ioos:station:WAVCIS:CSI09:1,2017-04-07T11:00:00Z,29.1015,-89.9782,1021.96,11111222 
WAVCIS,ioos:station:WAVCIS:CSI09:1,2017-04-07T12:00:00Z,29.1015,-89.9782,1022.11,11111222 
WAVCIS,ioos:station:WAVCIS:CSI09:1,2017-04-07T13:00:00Z,29.1015,-89.9782,1022.63,11111222 
WAVCIS,ioos:station:WAVCIS:CSI09:1,2017-04-07T14:00:00Z,29.1015,-89.9782,1022.89,11111222 
WAVCIS,ioos:station:WAVCIS:CSI09:1,2017-04-07T15:00:00Z,29.1015,-89.9782,1023.23,11111222 
WAVCIS,ioos:station:WAVCIS:CSI09:1,2017-04-07T16:00:00Z,29.1015,-89.9782,1023.74,11111222 
WAVCIS,ioos:station:WAVCIS:CSI09:1,2017-04-07T17:00:00Z,29.1015,-89.9782,1023.26,11111222 
WAVCIS,ioos:station:WAVCIS:CSI09:1,2017-04-07T18:00:00Z,29.1015,-89.9782,1022.58,11111222 
WAVCIS,ioos:station:WAVCIS:CSI09:1,2017-04-07T19:00:00Z,29.1015,-89.9782,1021.7,11111222 
WAVCIS,ioos:station:WAVCIS:CSI09:1,2017-04-07T20:00:00Z,29.1015,-89.9782,1021.06,11111222 
WAVCIS,ioos:station:WAVCIS:CSI09:1,2017-04-07T21:00:00Z,29.1015,-89.9782,1020.3,11111222 
WAVCIS,ioos:station:WAVCIS:CSI09:1,2017-04-07T22:00:00Z,29.1015,-89.9782,1019.73,11111222 
WAVCIS,ioos:station:WAVCIS:CSI09:1,2017-04-07T23:00:00Z,29.1015,-89.9782,1019.66,11111222 
WAVCIS,ioos:station:WAVCIS:CSI09:1,2017-04-08T00:00:00Z,29.1015,-89.9782,1019.59,11111222 
WAVCIS,ioos:station:WAVCIS:CSI09:1,2017-04-08T01:00:00Z,29.1015,-89.9782,1019.72,11111222 
WAVCIS,ioos:station:WAVCIS:CSI09:1,2017-04-08T02:00:00Z,29.1015,-89.9782,1020.22,11111222 
WAVCIS,ioos:station:WAVCIS:CSI09:1,2017-04-08T03:00:00Z,29.1015,-89.9782,1020.51,11111222 
WAVCIS,ioos:station:WAVCIS:CSI09:1,2017-04-08T04:00:00Z,29.1015,-89.9782,1020.63,11111222 
WAVCIS,ioos:station:WAVCIS:CSI09:1,2017-04-08T05:00:00Z,29.1015,-89.9782,1020.28,11111222 
WAVCIS,ioos:station:WAVCIS:CSI09:1,2017-04-08T06:00:00Z,29.1015,-89.9782,1020.15,11111222 
WAVCIS,ioos:station:WAVCIS:CSI09:1,2017-04-08T07:00:00Z,29.1015,-89.9782,1019.57,11111222 
WAVCIS,ioos:station:WAVCIS:CSI09:1,2017-04-08T08:00:00Z,29.1015,-89.9782,1019.29,11111222 
WAVCIS,ioos:station:WAVCIS:CSI09:1,2017-04-08T09:00:00Z,29.1015,-89.9782,1019.01,11111222 
WAVCIS,ioos:station:WAVCIS:CSI09:1,2017-04-08T10:00:00Z,29.1015,-89.9782,1019.38,11111222 
WAVCIS,ioos:station:WAVCIS:CSI09:1,2017-04-08T11:00:00Z,29.1015,-89.9782,1020.06,11111222 
WAVCIS,ioos:station:WAVCIS:CSI09:1,2017-04-08T12:00:00Z,29.1015,-89.9782,1020.41,11111222 
WAVCIS,ioos:station:WAVCIS:CSI09:1,2017-04-08T13:00:00Z,29.1015,-89.9782,1020.96,11111222 
WAVCIS,ioos:station:WAVCIS:CSI09:1,2017-04-08T14:00:00Z,29.1015,-89.9782,1021.21,11111222 
WAVCIS,ioos:station:WAVCIS:CSI09:1,2017-04-08T15:00:00Z,29.1015,-89.9782,1021.51,11111222 
WAVCIS,ioos:station:WAVCIS:CSI09:1,2017-04-08T16:00:00Z,29.1015,-89.9782,1021.41,11111222 
WAVCIS,ioos:station:WAVCIS:CSI09:1,2017-04-08T17:00:00Z,29.1015,-89.9782,1021.46,11111222 
WAVCIS,ioos:station:WAVCIS:CSI09:1,2017-04-08T18:00:00Z,29.1015,-89.9782,1021.23,11111222 
WAVCIS,ioos:station:WAVCIS:CSI09:1,2017-04-08T19:00:00Z,29.1015,-89.9782,1020.62,11111222 
WAVCIS,ioos:station:WAVCIS:CSI09:1,2017-04-08T20:00:00Z,29.1015,-89.9782,1019.88,11111222 
WAVCIS,ioos:station:WAVCIS:CSI09:1,2017-04-08T21:00:00Z,29.1015,-89.9782,1019.23,11111222 
WAVCIS,ioos:station:WAVCIS:CSI09:1,2017-04-08T22:00:00Z,29.1015,-89.9782,1018.71,11111222 
WAVCIS,ioos:station:WAVCIS:CSI09:1,2017-04-08T23:00:00Z,29.1015,-89.9782,1018.22,11111222 
WAVCIS,ioos:station:WAVCIS:CSI09:1,2017-04-09T00:00:00Z,29.1015,-89.9782,1017.97,11111222 
WAVCIS,ioos:station:WAVCIS:CSI09:1,2017-04-09T01:00:00Z,29.1015,-89.9782,1017.85,11111222 
WAVCIS,ioos:station:WAVCIS:CSI09:1,2017-04-09T02:00:00Z,29.1015,-89.9782,1018.09,11111222 
WAVCIS,ioos:station:WAVCIS:CSI09:1,2017-04-09T03:00:00Z,29.1015,-89.9782,1018.3,11111222 
WAVCIS,ioos:station:WAVCIS:CSI09:1,2017-04-09T04:00:00Z,29.1015,-89.9782,1018.18,11111222 
WAVCIS,ioos:station:WAVCIS:CSI09:1,2017-04-09T05:00:00Z,29.1015,-89.9782,1018.05,11111222 
WAVCIS,ioos:station:WAVCIS:CSI09:1,2017-04-09T06:00:00Z,29.1015,-89.9782,1017.96,11111222 
WAVCIS,ioos:station:WAVCIS:CSI09:1,2017-04-09T07:00:00Z,29.1015,-89.9782,1017.52,11111222 
WAVCIS,ioos:station:WAVCIS:CSI09:1,2017-04-09T08:00:00Z,29.1015,-89.9782,1017.26,11111222 
WAVCIS,ioos:station:WAVCIS:CSI09:1,2017-04-09T09:00:00Z,29.1015,-89.9782,1017.05,11111222 
WAVCIS,ioos:station:WAVCIS:CSI09:1,2017-04-09T10:00:00Z,29.1015,-89.9782,1017.03,11111222 
WAVCIS,ioos:station:WAVCIS:CSI09:1,2017-04-09T11:00:00Z,29.1015,-89.9782,1017.18,11111222 
WAVCIS,ioos:station:WAVCIS:CSI09:1,2017-04-09T12:00:00Z,29.1015,-89.9782,1017.7,11111222 
WAVCIS,ioos:station:WAVCIS:CSI09:1,2017-04-09T13:00:00Z,29.1015,-89.9782,1018.75,11111222 
WAVCIS,ioos:station:WAVCIS:CSI09:1,2017-04-09T14:00:00Z,29.1015,-89.9782,1019.32,11111222 
WAVCIS,ioos:station:WAVCIS:CSI09:1,2017-04-09T15:00:00Z,29.1015,-89.9782,1019.63,11111222 
WAVCIS,ioos:station:WAVCIS:CSI09:1,2017-04-09T16:00:00Z,29.1015,-89.9782,1020.08,11111222 
WAVCIS,ioos:station:WAVCIS:CSI09:1,2017-04-09T17:00:00Z,29.1015,-89.9782,1020.09,11111222 
WAVCIS,ioos:station:WAVCIS:CSI09:1,2017-04-09T18:00:00Z,29.1015,-89.9782,1020.02,11111222 
WAVCIS,ioos:station:WAVCIS:CSI09:1,2017-04-09T19:00:00Z,29.1015,-89.9782,1019.92,11111222 
WAVCIS,ioos:station:WAVCIS:CSI09:1,2017-04-09T20:00:00Z,29.1015,-89.9782,1019.15,11111222 
WAVCIS,ioos:station:WAVCIS:CSI09:1,2017-04-09T21:00:00Z,29.1015,-89.9782,1018.66,11111222 
WAVCIS,ioos:station:WAVCIS:CSI09:1,2017-04-09T22:00:00Z,29.1015,-89.9782,1018.65,11111222 
WAVCIS,ioos:station:WAVCIS:CSI09:1,2017-04-09T23:00:00Z,29.1015,-89.9782,1018.25,11111222 
WAVCIS,ioos:station:WAVCIS:CSI09:1,2017-04-10T00:00:00Z,29.1015,-89.9782,1017.78,11111222 
WAVCIS,ioos:station:WAVCIS:CSI09:1,2017-04-10T01:00:00Z,29.1015,-89.9782,1018.41,11111222 
WAVCIS,ioos:station:WAVCIS:CSI09:1,2017-04-10T02:00:00Z,29.1015,-89.9782,1018.89,11111222 
WAVCIS,ioos:station:WAVCIS:CSI09:1,2017-04-10T03:00:00Z,29.1015,-89.9782,1019.37,11111222 
WAVCIS,ioos:station:WAVCIS:CSI09:1,2017-04-10T04:00:00Z,29.1015,-89.9782,1019.05,11111222 
WAVCIS,ioos:station:WAVCIS:CSI09:1,2017-04-10T05:00:00Z,29.1015,-89.9782,1018.79,11111222 
WAVCIS,ioos:station:WAVCIS:CSI09:1,2017-04-10T06:00:00Z,29.1015,-89.9782,1018.25,11111222 
WAVCIS,ioos:station:WAVCIS:CSI09:1,2017-04-10T07:00:00Z,29.1015,-89.9782,1017.9,11111222 
WAVCIS,ioos:station:WAVCIS:CSI09:1,2017-04-10T08:00:00Z,29.1015,-89.9782,1017.98,11111222 
WAVCIS,ioos:station:WAVCIS:CSI09:1,2017-04-10T09:00:00Z,29.1015,-89.9782,1018.05,11111222 
WAVCIS,ioos:station:WAVCIS:CSI09:1,2017-04-10T10:00:00Z,29.1015,-89.9782,1018.22,11111222 
WAVCIS,ioos:station:WAVCIS:CSI09:1,2017-04-10T11:00:00Z,29.1015,-89.9782,1018.78,11111222 
WAVCIS,ioos:station:WAVCIS:CSI09:1,2017-04-10T12:00:00Z,29.1015,-89.9782,1019.47,11111222 
WAVCIS,ioos:station:WAVCIS:CSI09:1,2017-04-10T13:00:00Z,29.1015,-89.9782,1020.1,11111222 
WAVCIS,ioos:station:WAVCIS:CSI09:1,2017-04-10T14:00:00Z,29.1015,-89.9782,1020.67,11111222 
WAVCIS,ioos:station:WAVCIS:CSI09:1,2017-04-10T15:00:00Z,29.1015,-89.9782,1021.17,11111222 
WAVCIS,ioos:station:WAVCIS:CSI09:1,2017-04-10T16:00:00Z,29.1015,-89.9782,1021.75,11111222 
WAVCIS,ioos:station:WAVCIS:CSI09:1,2017-04-10T17:00:00Z,29.1015,-89.9782,1021.74,11111222 
WAVCIS,ioos:station:WAVCIS:CSI09:1,2017-04-10T18:00:00Z,29.1015,-89.9782,1021.37,11111222 
WAVCIS,ioos:station:WAVCIS:CSI09:1,2017-04-10T19:00:00Z,29.1015,-89.9782,1021.04,11111222 
WAVCIS,ioos:station:WAVCIS:CSI09:1,2017-04-10T20:00:00Z,29.1015,-89.9782,1020.58,11111222 
WAVCIS,ioos:station:WAVCIS:CSI09:1,2017-04-10T21:00:00Z,29.1015,-89.9782,1020.43,11111222 
WAVCIS,ioos:station:WAVCIS:CSI09:1,2017-04-10T22:00:00Z,29.1015,-89.9782,1020.1,11111222 
WAVCIS,ioos:station:WAVCIS:CSI09:1,2017-04-10T23:00:00Z,29.1015,-89.9782,1019.89,11111222 
WAVCIS,ioos:station:WAVCIS:CSI09:1,2017-04-11T00:00:00Z,29.1015,-89.9782,1019.9,11111222 
WAVCIS,ioos:station:WAVCIS:CSI09:1,2017-04-11T01:00:00Z,29.1015,-89.9782,1019.83,11111222 
WAVCIS,ioos:station:WAVCIS:CSI09:1,2017-04-11T02:00:00Z,29.1015,-89.9782,1020.45,11111222 
WAVCIS,ioos:station:WAVCIS:CSI09:1,2017-04-11T03:00:00Z,29.1015,-89.9782,1021.13,11111222 
WAVCIS,ioos:station:WAVCIS:CSI09:1,2017-04-11T04:00:00Z,29.1015,-89.9782,1021.32,11111222 
WAVCIS,ioos:station:WAVCIS:CSI09:1,2017-04-11T05:00:00Z,29.1015,-89.9782,1020.87,11111222 
WAVCIS,ioos:station:WAVCIS:CSI09:1,2017-04-11T06:00:00Z,29.1015,-89.9782,1020.3,11111222 
WAVCIS,ioos:station:WAVCIS:CSI09:1,2017-04-11T07:00:00Z,29.1015,-89.9782,1020.4,11111222 
WAVCIS,ioos:station:WAVCIS:CSI09:1,2017-04-11T08:00:00Z,29.1015,-89.9782,1020.49,11111222 
WAVCIS,ioos:station:WAVCIS:CSI09:1,2017-04-11T09:00:00Z,29.1015,-89.9782,1020.35,11111222 
WAVCIS,ioos:station:WAVCIS:CSI09:1,2017-04-11T10:00:00Z,29.1015,-89.9782,1020.07,11111222 
WAVCIS,ioos:station:WAVCIS:CSI09:1,2017-04-11T11:00:00Z,29.1015,-89.9782,1020.43,11111222 
WAVCIS,ioos:station:WAVCIS:CSI09:1,2017-04-11T12:00:00Z,29.1015,-89.9782,1021.15,11111222 
WAVCIS,ioos:station:WAVCIS:CSI09:1,2017-04-11T13:00:00Z,29.1015,-89.9782,1022.0,11111222 
WAVCIS,ioos:station:WAVCIS:CSI09:1,2017-04-11T14:00:00Z,29.1015,-89.9782,1022.4,11111222 
WAVCIS,ioos:station:WAVCIS:CSI09:1,2017-04-11T15:00:00Z,29.1015,-89.9782,1023.12,11111222 
WAVCIS,ioos:station:WAVCIS:CSI09:1,2017-04-11T16:00:00Z,29.1015,-89.9782,1023.3,11111222 
WAVCIS,ioos:station:WAVCIS:CSI09:1,2017-04-11T17:00:00Z,29.1015,-89.9782,1022.93,11111222 
WAVCIS,ioos:station:WAVCIS:CSI09:1,2017-04-11T18:00:00Z,29.1015,-89.9782,1022.12,11111222 
WAVCIS,ioos:station:WAVCIS:CSI09:1,2017-04-11T19:00:00Z,29.1015,-89.9782,1021.7,11111222 
WAVCIS,ioos:station:WAVCIS:CSI09:1,2017-04-11T20:00:00Z,29.1015,-89.9782,1021.0,11111222 
WAVCIS,ioos:station:WAVCIS:CSI09:1,2017-04-11T21:00:00Z,29.1015,-89.9782,1020.53,11111222 
WAVCIS,ioos:station:WAVCIS:CSI09:1,2017-04-11T22:00:00Z,29.1015,-89.9782,1020.83,11111222 